Location: Williams Lake
(52.1170°N, 122.1500°W)
Time: 05:06:20
(UTC-07:00)

Daily predictions for brighter satellites

Satellite Brightness Start Highest point End
(mag) Time Altitude Azimuth Time Altitude Azimuth Time Altitude Azimuth
Nadezhda 4 Rocket 4.5 00:01:41 10° NNW 00:07:01 52° WNW 00:07:01 52° WNW
Cosmos 2297 Rocket 3.0 00:04:46 10° NNW 00:09:07 47° N 00:09:07 47° N
ATLAS 3B R/B 3.2 00:27:49 54° ENE 00:27:49 54° ENE 00:33:09 10° NE
Cosmos 2369 Rocket 3.9 00:23:39 21° W 00:26:06 29° NW 00:31:00 10° NNE
USA 215 3.5 00:25:52 10° ENE 00:32:21 67° NNW 00:38:49 10° W
CZ-4C R/B 3.1 00:32:54 49° NW 00:33:12 49° NNW 00:39:32 10° NE
Lacrosse 5 3.8 00:29:26 10° WNW 00:31:26 23° WNW 00:31:26 23° WNW
Cosmos 2227 Rocket 3.2 00:30:47 10° NNW 00:34:29 42° NW 00:34:29 42° NW
CZ-2C R/B 4.5 00:40:31 32° NNW 00:40:31 32° NNW 00:43:07 10° NNW
Cosmos 1943 Rocket 3.6 00:52:50 32° NW 00:53:15 32° NW 00:58:18 10° NNE
ATLAS 5 CENTAUR R/B 4.1 00:53:00 10° WNW 00:57:24 26° N 01:02:12 10° NE
Cosmos 2263 Rocket 4.2 00:58:14 10° NNW 01:02:35 22° NE 01:04:19 19° ENE
USA 238 DEB 4.0 01:21:45 64° NNE 01:21:45 64° NNE 01:27:38 10° NE
USA 238 4.0 01:21:52 64° NE 01:21:52 64° NE 01:27:44 10° NE
Lacrosse 4 Rocket 4.2 01:23:13 10° N 01:25:37 15° NNE 01:25:41 15° NNE
CZ-2C R/B 3.9 01:31:50 10° N 01:35:04 36° NNW 01:35:04 36° NNW
SL-16 R/B 4.4 01:35:34 17° E 01:38:23 24° NE 01:43:08 10° N
COSMOS 2455 3.6 01:49:35 50° NNE 01:49:35 50° NNE 01:54:01 10° NE
NOSS 3-2 (C) 4.2 01:52:03 50° ENE 01:52:03 50° ENE 01:57:08 10° NE
Cosmos 2297 Rocket 4.3 01:49:16 10° NW 01:50:55 18° WNW 01:50:55 18° WNW
CENTAUR R/B 3.9 01:57:06 29° E 01:57:06 29° E 02:01:30 10° NE
Cosmos 2322 Rocket 4.1 02:11:28 21° E 02:11:28 21° E 02:14:35 10° NE
USA 215 3.6 02:08:37 10° E 02:15:02 60° N 02:21:27 10° WNW
SL-16 R/B 3.9 02:18:12 23° E 02:18:12 23° E 02:21:45 10° NE
ATLAS 3B R/B 3.6 02:15:01 35° WNW 02:17:18 44° NNW 02:24:01 10° NE
Cosmos 1697 Rocket 3.4 02:21:41 51° NNE 02:21:41 51° NNE 02:25:53 10° NNE
Meteor 1-11 Rocket 4.4 02:14:53 10° N 02:19:51 50° NE 02:19:51 50° NE
CZ-4C R/B 4.1 02:17:59 11° WNW 02:23:11 31° N 02:29:14 10° ENE
Cosmos 1553 Rocket 4.1 02:38:12 73° ENE 02:38:12 73° ENE 02:44:15 10° NNE
Cosmos 1980 Rocket 2.7 02:41:09 58° NE 02:41:09 58° NE 02:45:43 10° NNE
Cosmos 2360 Rocket 4.3 02:39:21 15° ESE 02:40:02 15° E 02:43:12 10° ENE
ATLAS 5 CENTAUR R/B 3.8 02:38:33 10° NW 02:43:36 34° NNE 02:49:07 10° E
ARIANE 5 R/B 4.3 02:40:08 10° NE 02:44:14 23° E 02:44:33 23° E
Cosmos 2263 Rocket 2.8 02:41:49 10° NNW 02:45:58 50° NNW 02:45:58 50° NNW
S3M 4.0 02:50:07 76° NNE 02:50:07 76° NNE 02:55:46 10° N
NOSS 3-2 (A) 3.9 02:50:27 55° NW 02:51:01 57° NNW 02:57:56 10° NE
Lacrosse 4 Rocket 3.9 03:01:11 10° NNW 03:02:00 15° NNW 03:02:00 15° NNW
Cosmos 1709 Rocket 4.0 03:00:18 10° N 03:06:34 75° ENE 03:07:12 69° ESE
Cosmos 1777 Rocket 4.4 03:06:08 10° NNW 03:11:24 60° ENE 03:11:50 58° E
AQUA 4.4 03:07:07 10° NNE 03:11:00 55° NE 03:11:00 55° NE
Meteor 1-5 Rocket 4.2 03:08:11 10° N 03:13:14 70° NE 03:13:14 70° NE
IRS-1D 4.4 03:09:09 10° NNE 03:13:48 39° E 03:13:57 39° ESE
SL-16 R/B 2.4 03:20:38 73° SSE 03:21:20 89° W 03:27:36 10° NNW
Meteor 2-6 Rocket 4.4 03:21:58 64° NW 03:21:58 64° NW 03:27:25 10° N
Cosmos 883 Rocket 4.4 03:21:50 73° SSE 03:22:25 82° E 03:28:41 10° NNE
IRS-P3 4.2 03:18:51 10° NNE 03:23:49 72° NNW 03:23:49 72° NNW
Cosmos 1378 Rocket 4.3 03:27:32 50° NE 03:27:32 50° NE 03:30:57 10° NNE
ADEOS Rocket 3.6 03:25:16 10° NNE 03:30:35 44° E 03:32:02 36° SE
Cosmos 2360 4.4 03:33:43 59° WNW 03:33:51 59° NW 03:39:33 10° NNE
COSMOS 2455 4.3 03:32:42 23° WNW 03:34:47 28° NNW 03:39:58 10° NNE
Orbus 7S? 4.4 03:34:01 65° SSW 03:34:47 73° SSE 03:39:02 10° ENE
Cosmos 1455 Rocket 4.4 03:30:42 10° N 03:34:51 38° ENE 03:36:13 30° ESE
Resurs 1-4 Rocket 2.3 03:34:55 10° NNE 03:40:11 63° ESE 03:40:53 57° SE
NOSS 3-2 (C) 4.4 03:39:28 34° WNW 03:41:43 45° NNW 03:48:31 10° NE
CBERS-1 4.1 03:39:01 10° N 03:43:54 62° NW 03:43:54 62° NW
ERBS 4.2 03:45:42 32° NE 03:45:42 32° NE 03:48:08 10° ENE
Cosmos 1674 Rocket 4.5 03:46:28 40° NNW 03:46:28 40° NNW 03:49:43 10° N
CENTAUR R/B 2.6 03:44:16 58° WSW 03:45:36 75° NW 03:52:54 10° NE
Cosmos 1461 4.1 03:46:50 33° NNW 03:46:50 33° NNW 03:49:51 10° NNE
Cosmos 1975 Rocket 3.3 03:47:55 62° E 03:47:55 62° E 03:52:06 10° NNE
Cosmos 44 4.2 03:47:51 37° NW 03:48:00 37° NW 03:52:20 10° NNE
CZ-2D R/B 2.2 03:44:21 10° NNE 03:49:53 74° ESE 03:50:57 57° SSE
SL-08 ROCKET BODY 4.3 03:47:16 10° N 03:53:11 83° E 03:55:29 39° SSE
Cosmos 2322 Rocket 2.0 03:53:16 69° WSW 03:53:52 77° WNW 03:59:32 10° NNE
Cosmos 1992 Rocket 4.3 03:57:04 52° WNW 03:57:15 52° WNW 04:02:24 10° NNE
USA 215 3.2 03:51:19 10° ESE 03:57:53 89° NNE 04:04:28 10° WNW
Meteor 1-12 Rocket 4.4 03:52:32 10° N 03:58:13 70° ENE 04:02:20 19° SSE
ADEOS II 4.4 03:55:56 10° NE 03:59:42 19° E 04:03:27 10° SE
Cosmos 2184 Rocket 4.0 03:54:08 10° N 04:00:23 80° E 04:04:34 22° SSE
SL-16 R/B 2.1 04:00:03 62° WSW 04:00:53 72° WNW 04:06:36 10° NNE
Genesis I 3.6 04:01:37 60° NNE 04:01:37 60° NNE 04:04:58 10° NE
Cosmos 1844 Rocket 2.8 03:58:13 10° NNW 04:03:50 73° ENE 04:09:24 10° SE
Cosmos 2219 Rocket 4.4 04:00:37 10° SE 04:04:23 19° E 04:08:12 10° ENE
Cosmos 1697 Rocket 4.1 04:03:24 23° WNW 04:04:53 25° NW 04:09:35 10° NNE
NPP 4.2 04:01:51 10° N 04:06:54 42° WNW 04:07:17 41° WNW
USA 81 4.4 04:08:36 46° WNW 04:08:37 46° WNW 04:13:43 10° N
ATLAS 3B R/B 4.2 04:03:21 10° WNW 04:09:42 32° N 04:15:46 10° ENE
Cosmos 1975 2.9 04:07:13 10° N 04:11:18 74° ENE 04:11:46 65° SE
USA 161 4.4 04:15:18 11° NNW 04:15:18 11° NNW 04:15:29 10° NNW
CZ-4C R/B 4.0 04:07:18 10° NW 04:13:23 40° NNE 04:20:17 10° E
COSMOS 2428 3.9 04:11:13 19° SSE 04:14:33 36° ESE 04:19:42 10° NE
Meteor 1-27 Rocket 4.4 04:15:54 38° W 04:16:40 39° WNW 04:22:09 10° N
ADEOS 3.5 04:11:48 10° N 04:17:01 67° WNW 04:18:03 53° SW
Cosmos 1867 3.8 04:12:33 10° NW 04:18:03 72° NE 04:23:30 10° SE
Cosmos 1346 Rocket 4.0 04:19:48 30° NW 04:19:48 30° NW 04:22:29 10° N
Spot 4 Rocket 4.2 04:15:10 10° N 04:20:13 56° WNW 04:21:05 49° WSW
Cosmos 1340 3.4 04:20:03 42° SE 04:20:52 50° E 04:24:34 10° NNE
DNEPR-1 R/B 4.2 04:21:28 46° W 04:22:46 60° NW 04:27:30 10° NE
Cosmos 2360 Rocket 2.2 04:21:07 42° SSW 04:23:07 79° ESE 04:28:49 10° NNE
MOZ.5/SAFIR/RUBIN 5/SL-8 3.6 04:22:37 58° SW 04:23:15 65° WSW 04:27:54 10° NNW
ARIANE 5 R/B 2.6 04:18:42 10° N 04:23:46 62° WNW 04:24:54 49° WSW
Cosmos 1980 Rocket 3.5 04:22:54 24° WNW 04:24:40 28° NW 04:29:31 10° NNE
Cosmos 2278 Rocket 3.0 04:19:11 10° NNW 04:24:45 52° NE 04:30:17 10° SE
Cosmos 1812 2.5 04:25:19 80° W 04:25:21 81° W 04:29:16 10° N
ATLAS 5 CENTAUR R/B 2.3 04:23:15 10° NW 04:29:02 84° NE 04:35:25 10° SE
Cosmos 1666 4.3 04:25:50 10° N 04:29:28 36° ENE 04:33:05 10° SE
Okean 3 4.4 04:30:38 32° WNW 04:30:38 32° WNW 04:34:08 10° N
Cosmos 2263 Rocket 4.1 04:26:39 10° NW 04:27:38 14° WNW 04:27:38 14° WNW
Cosmos 1898 Rocket 3.9 04:27:58 10° NNW 04:33:11 65° ENE 04:38:20 10° SE
Cosmos 2154 Rocket 4.1 04:28:28 10° N 04:34:43 79° E 04:40:55 10° SSE
Landsat 4 4.0 04:35:54 47° WNW 04:35:54 47° WNW 04:38:59 10° NNW
Cosmos 2237 Rocket 4.5 04:31:24 10° SE 04:35:26 20° E 04:39:28 10° NE
Meteor 2-13 Rocket 4.3 04:29:38 10° NNW 04:35:48 73° W 04:41:26 12° S
Cosmos 1544 Rocket 3.8 04:35:02 10° NNW 04:39:20 47° W 04:39:36 46° WSW
Cosmos 1570 Rocket 4.4 04:37:49 23° S 04:40:58 61° ESE 04:46:09 10° NNE
Cosmos 1743 2.8 04:38:28 10° N 04:42:22 76° E 04:45:43 13° SSE
BREEZE M DEB (TANK) 4.2 04:32:08 10° W 04:50:12 64° SSW 04:55:02 10° SE
Cosmos 1610 Rocket 4.5 04:45:03 10° NNW 04:51:15 66° W 04:57:30 10° S
IRS-1D 4.2 04:48:34 10° N 04:53:04 35° WNW 04:54:26 30° W
Nadezhda 1 Rocket 3.9 04:51:29 18° SSW 04:56:11 80° W 05:02:18 10° N
UNKNOWN OBJECT B 3.2 04:54:51 10° N 04:58:21 40° WNW 04:58:54 37° W
Cosmos 1937 Rocket 3.7 04:53:45 10° NNW 04:59:08 76° ENE 05:04:26 10° SSE
Cosmos 2333 Rocket 3.5 04:56:27 10° S 05:01:42 39° ESE 05:07:01 10° NE
Cosmos 1500 4.1 04:59:36 10° NNW 05:02:45 30° W 05:02:45 30° W
SL-16 R/B 3.8 05:05:43 19° W 05:05:49 19° W 05:10:11 10° NW
Cosmos 2322 3.8 05:03:15 26° SW 05:06:29 64° NW 05:12:12 10° NNE
IRS-1C Rocket 4.5 05:04:35 10° NNE 05:09:51 65° ESE 05:15:04 10° S
EO 1 Del DPAF 3.1 05:07:14 10° S 05:11:05 72° WSW 05:14:59 10° NNW
Okean O Rocket 1.8 05:06:36 10° NNE 05:11:05 77° ESE 05:15:33 10° S
Cosmos 1455 Rocket 4.0 05:08:48 10° NNW 05:12:33 28° W 05:13:19 26° WSW
ERS-2 4.3 05:11:02 10° NE 05:14:12 26° E 05:17:22 10° SSE
ADEOS Rocket 3.5 05:11:04 10° N 05:16:07 36° WNW 05:19:00 21° WSW
Cosmos 2341 Rocket 3.9 05:12:33 10° NNW 05:18:47 71° W 05:24:58 10° S
Cosmos 1844 3.9 05:13:30 10° NW 05:19:00 46° WSW 05:24:26 10° S
Resurs 1-4 Rocket 3.3 05:15:22 10° N 05:19:39 26° WNW 05:21:59 19° W
Cosmos 2218 Rocket 4.4 05:15:09 10° N 05:21:35 72° ENE 05:27:53 10° SSE
ERBS 2.3 05:19:03 15° WNW 05:21:50 90° NNE 05:25:20 10° ESE
CZ-4B R/B 2.5 05:19:00 10° NNE 05:22:38 84° WNW 05:26:02 12° SSW
CZ-2D R/B 4.4 05:19:45 10° N 05:23:45 33° WNW 05:25:53 21° WSW
MTI 4.0 05:22:23 10° S 05:25:34 49° W 05:28:49 10° NNW
Cosmos 2333 4.2 05:21:01 14° SSW 05:25:53 86° WNW 05:31:40 10° NNE
Aureole 2 Rocket 4.0 05:23:17 10° S 05:26:25 33° ESE 05:29:21 10° NE
CZ-4B R/B 3.3 05:21:35 10° NNE 05:27:18 83° ESE 05:32:52 10° SSW
Okean-O 4.2 05:24:27 10° NNE 05:28:36 37° E 05:32:44 10° SSE
Cosmos 2298 Rocket 4.1 05:23:40 10° NNW 05:28:54 57° WSW 05:34:07 10° S
CZ-2D R/B 3.5 05:25:09 10° N 05:29:27 24° NW 05:32:17 16° W
CZ-4B DEB 4.3 05:25:07 10° NNE 05:30:44 87° ESE 05:36:18 10° SSW
SL-16 R/B 4.4 05:28:54 10° SSE 05:33:23 25° ESE 05:37:54 10° NE
CENTAUR R/B 3.8 05:31:26 11° W 05:37:25 38° NNW 05:44:24 10° NE
Cosmos 2322 Rocket 3.7 05:35:05 12° W 05:38:52 22° NW 05:43:14 10° NNE
Meteor 2-19 Rocket 4.5 05:33:47 10° NNW 05:39:46 58° W 05:45:41 10° S
ADEOS II 2.1 05:34:45 10° NNE 05:40:02 76° WNW 05:45:17 10° SSW
CZ-2C R/B 3.9 05:36:35 10° S 05:40:58 45° W 05:45:17 10° NNW
USA 215 3.7 05:35:19 10° SSE 05:41:22 39° SW 05:47:27 10° WNW
Cosmos 1980 4.2 05:36:57 10° SSW 05:42:31 62° ESE 05:48:06 10° NE
Cosmos 2369 Rocket 4.4 05:40:20 10° NNW 05:45:01 26° NE 05:49:41 10° E
Meteor 1-13 Rocket 4.3 05:39:36 10° SSW 05:45:05 59° WNW 05:50:44 10° N
Cosmos 1536 Rocket 4.5 05:42:40 15° SW 05:45:46 31° WNW 05:49:47 10° N
SL-16 R/B 3.8 05:41:55 11° W 05:46:02 22° NNW 05:50:22 10° NNE
Cosmos 1844 Rocket 3.7 05:42:53 10° NW 05:47:11 23° WSW 05:51:27 10° SSW
Cosmos 2219 Rocket 2.2 05:42:01 10° SSW 05:47:38 87° WNW 05:53:17 10° NNE
PSLV R/B 3.6 05:43:36 10° N 05:47:56 66° WNW 05:52:16 10° SSW
MOS 1 Rocket 4.0 05:44:28 10° N 05:48:46 34° WNW 05:52:36 11° SW
PSLV R/B 4.5 05:46:41 10° N 05:50:07 34° WNW 05:53:23 11° SW
Cosmos 2208 Rocket 4.5 05:45:52 12° SW 05:50:49 49° WNW 05:56:06 10° NNE
Cosmos 1959 Rocket 4.4 05:44:47 10° NNW 05:50:54 76° W 05:57:01 10° S
Meteor 2-9 Rocket 4.4 05:45:38 10° NNW 05:51:09 51° W 05:56:28 10° S
IRAS Rocket 4.2 05:45:50 10° NNE 05:51:24 78° WNW 05:56:58 10° SSW
USA 229 DEB 3.9 05:48:26 10° SW 05:55:18 80° SE 06:02:20 10° NE
USA 229 3.9 05:48:33 10° SW 05:55:24 80° SE 06:02:26 10° NE
Cosmos 2285 Rocket 4.1 05:49:54 10° SSW 05:56:22 89° WNW 06:02:51 10° NNE
Cosmos 1340 4.4 05:54:55 13° W 05:56:53 18° WNW 05:59:32 10° NNW
Cosmos 2058 Rocket 3.1 05:52:23 10° N 05:56:55 89° E 06:01:23 10° S
Cosmos 1238 Rocket 3.3 05:55:43 13° SW 05:57:53 26° WNW 06:00:37 10° N
COSMOS 2428 3.1 05:53:15 10° SW 05:58:41 50° NW 06:04:15 10° NNE
SKYMED 2 4.0 05:56:36 10° SSE 06:00:55 70° ENE 06:05:16 10° N
Cosmos 1867 4.5 05:56:43 10° WNW 06:01:14 27° WSW 06:05:42 10° S
Cosmos 990 Rocket 4.3 05:56:21 10° NW 06:01:17 45° WSW 06:06:09 10° S
ARIANE 5 R/B 4.5 05:59:31 10° NNW 06:01:59 14° NW 06:04:26 10° WNW
ATLAS 3B R/B 3.8 05:55:18 10° NW 06:02:04 46° NNE 06:08:28 10° E
CZ-4C R/B 2.9 05:55:54 10° NW 06:02:45 87° NE 06:10:32 10° SE
Cosmos 1666 3.9 06:01:52 10° NW 06:04:58 23° W 06:08:03 10° SW
Cosmos 2366 rocket 4.0 06:00:21 10° NNW 06:06:40 67° W 06:12:57 10° S
Cosmos 2360 Rocket 3.4 06:02:57 10° W 06:07:46 28° NW 06:12:36 10° NNE
Cosmos 2278 Rocket 2.8 06:03:35 10° NW 06:08:40 35° WSW 06:13:43 10° S
NOSS 3-1 (C) 4.4 06:03:22 10° SSW 06:09:01 49° ESE 06:15:25 10° NE
Cosmos 1441 Rocket 3.9 06:05:12 10° S 06:09:08 62° E 06:13:07 10° NNE
Cosmos 1515 4.1 06:06:08 10° S 06:09:58 68° E 06:13:49 10° NNE
Cosmos 1606 Rocket 3.9 06:05:44 10° NNW 06:10:02 46° W 06:14:18 10° SSW
Cosmos 1980 Rocket 4.4 06:08:20 10° NW 06:10:46 13° NNW 06:13:12 10° NNE
Cosmos 1943 Rocket 4.5 06:06:45 10° NNW 06:11:21 24° NE 06:15:56 10° E
Meteor 1-23 Rocket 4.3 06:07:00 10° SSW 06:12:46 66° WNW 06:18:30 10° N
Cosmos 1437 2.8 06:09:52 10° SSW 06:13:07 61° WNW 06:16:23 10° N
ATLAS 5 CENTAUR R/B 3.3 06:08:26 10° WNW 06:13:23 27° WSW 06:18:38 10° S
Okean 1-7 Rocket 4.1 06:11:01 10° SW 06:15:16 40° WNW 06:19:30 10° N
Cosmos 468 Rocket 4.1 06:10:33 10° SW 06:15:42 61° WNW 06:20:57 10° NNE
Cosmos 405 Rocket 2.9 06:14:14 10° SSW 06:18:12 55° WNW 06:22:08 10° N
Cosmos 2237 Rocket 2.3 06:13:05 10° SSW 06:18:48 84° WNW 06:24:34 10° NNE
Orbus 7S? 4.2 06:16:09 10° WNW 06:20:59 40° N 06:23:46 10° ENE
Thor Agena Rocket 3.6 06:16:12 10° S 06:21:08 54° WSW 06:26:06 10° NNW
